Regional Weather Roundup
Issued by NWS

Home | Current Version | Previous Version | Graphics & Text | Print | Product List | Glossary On
Versions: 1 2 3 4 5 6 7 8 9 10 11 12 13 14 15 16 17 18 19 20 21 22 23 24 25 26 27 28 29 30 31 32 33 34 35 36 37 38 39 40 41 42 43 44 45 46 47 48 49 50
000
ASUS43 KLSX 180407
RWRMO

WEATHER SUMMARY FOR MISSOURI
NATIONAL WEATHER SERVICE SPRINGFIELD MO
1100 PM CDT TUE OCT 17 2017

NOTE: "FAIR" INDICATES FEW OR NO CLOUDS BELOW 12,000 FEET WITH NO
       SIGNIFICANT WEATHER AND/OR OBSTRUCTIONS TO VISIBILITY.
       CURRENT SKY AND/OR WEATHER CONDITIONS ARE NOT AVAILABLE FOR
       CHILLICOTHE AND FARMINGTON.

MOZ001>031-035>038-043-044-053-054-180500-
...NORTHERN AND WESTERN MISSOURI...

CITY           SKY/WX    TMP DP  RH WIND       PRES   REMARKS
KANSAS CTY INT CLEAR     56  47  71 S12       30.09F
KANSAS C DTWN  CLEAR     61  47  59 S9        30.10S
LEE`S SUMMIT   CLEAR     58  47  66 S10       30.12S
ST JOSEPH      CLEAR     60  49  66 S9        30.08R
CHILLICOTHE      N/A     53  47  79 S3        30.12S
KIRKSVILLE     CLEAR     51  46  83 S7        30.13F

$$
MOZ066>068-077>081-088>096-101>105-180500-
...SOUTHWEST MISSOURI...

CITY           SKY/WX    TMP DP  RH WIND       PRES   REMARKS
SPRINGFIELD    CLEAR     54  41  61 S9        30.17S
JOPLIN         CLEAR     52  45  77 S8        30.16S
BRANSON        CLEAR     54  37  54 S6        30.21R

$$
MOZ032>034-039>042-045>050-055>058-069>072-180500-
...CENTRAL MISSOURI...

CITY           SKY/WX    TMP DP  RH WIND       PRES   REMARKS
COLUMBIA       CLEAR     52  43  71 S8        30.16R
JEFFERSON CITY CLEAR     53  42  66 SE5       30.16S
ROLLA          CLEAR     51  39  63 S10       30.19S
SEDALIA        CLEAR     54  46  74 S10       30.15R
WARRENSBURG    CLEAR     54  45  71 S5        30.13R
OSAGE BEACH    CLEAR     52  42  69 S5        30.18

$$
MOZ051-052-059>065-180500-
...EAST CENTRAL MISSOURI...

CITY           SKY/WX    TMP DP  RH WIND       PRES   REMARKS
ST LOUIS INTL  CLEAR     57  41  55 S8        30.21R
SPIRIT OF STL  CLEAR     46  44  93 CALM      30.19S
ST CHARLES     CLEAR     48  43  82 E5        30.20R

$$
MOZ072>076-082>087-097>100-106>115-180500-
...SOUTH CENTRAL AND SOUTHEAST MISSOURI...

CITY           SKY/WX    TMP DP  RH WIND       PRES   REMARKS
CAPE GIRARDEAU CLEAR     44  41  89 CALM      30.24S
FARMINGTON     CLEAR     46  40  79 S5        30.22F
POPLAR BLUFF   CLEAR     45  43  93 CALM      30.24S
WEST PLAINS    CLEAR     52  40  63 S6        30.23S

$$



USA.gov is the U.S. government's official web portal to all federal, state and local government web resources and services.